[[{"header":{"parameterUnit":"m.s-1","parameterCategory":1,"la1":30.2991,"la2":30.254,"lo1":-89.0895,"lo2":-89.0444,"dy":0.0017,"dx":0.0017,"nx":28,"ny":28,"refTime":"2023-07-21T21:00:00:Z","depth":0,"parameterNumber":2,"parameterNumberName":"U-component_of_WINDS"},"data":[0,0,0,0,0,0,0,0,0,0,0,0,0,0,0,0,0,0,0,0,0,0,0,0,0,0,0,0,0,0,0,0,0,0,0,0,0,0,0,0,0,0,0,0,0,0,0,0,0,0,0,0,0,0,0,0,0,0,2.9669,2.9671,0,2.9824,2.9826,2.9828,2.9892,2.9891,2.9891,2.9891,3.005,3.0054,3.0059,0,0,0,0,0,0,0,0,0,0,0,0,0,2.9429,2.9433,2.9669,2.9671,2.9673,2.9824,2.9826,2.9828,2.9892,2.9891,2.9891,2.989,3.0048,3.0054,3.0059,0,0,0,0,0,0,0,0,0,0,0,0,0,2.9553,2.9434,2.9669,2.9723,2.9729,2.9824,2.9826,2.9829,2.9892,2.9891,2.9891,2.989,3.0046,3.0053,3.006,3.0112,0,0,3.0081,3.0084,0,0,0,0,0,0,0,0,2.9546,2.9562,2.9713,2.9719,2.9727,2.9838,2.98,2.9924,2.9892,2.983,2.9891,2.989,2.998,2.9992,3.0022,3.012,3.0127,3.0081,3.0086,3.0088,3.009,0,0,0,0,0,0,0,2.9537,2.9556,2.9731,2.9715,2.9723,2.974,2.9757,2.9824,2.9906,2.9835,2.984,2.9858,2.9983,3.0016,3.0027,3.0129,3.0081,3.0087,3.0091,3.0094,3.0279,3.028,0,0,0,0,0,0,2.952,2.9548,2.9726,2.9735,2.9633,2.9744,2.9764,2.9803,2.9905,2.992,2.9858,2.986,3.0004,3.0018,3.0032,3.0102,3.0088,3.0095,3.0099,3.0279,3.028,3.028,0,0,0,0,0,0,2.9514,2.9535,2.9719,2.9643,2.9668,2.9749,2.9793,2.9806,2.9838,2.9923,2.9938,2.9876,3.0004,3.0023,3.0092,3.0108,3.0098,3.0104,3.0278,3.0279,3.028,3.024,0,0,0,0,0,0,2.9507,2.9533,2.9553,2.9643,2.9672,2.9776,2.9794,2.981,2.985,2.9854,2.9943,2.9957,3.0005,3.0082,3.0099,3.0117,3.0109,3.0277,3.0278,3.028,3.024,3.024,3.0239,0,0,0,0,0,2.9498,2.9535,2.9554,2.9575,2.9699,2.9777,2.9793,2.9848,2.9851,2.9872,2.9927,2.9955,3.0104,3.0088,3.0109,3.0129,3.0276,3.0278,3.028,3.0241,3.024,3.0239,0,0,0,0,0,0,2.9444,2.9548,2.957,2.9637,2.9698,2.9787,2.9816,2.9845,2.9906,2.9908,2.9973,2.9992,3.0057,3.01,3.0081,3.0186,3.0192,3.0198,3.0156,3.0156,3.0155,3.0143,3.0115,0,0,0,0,0,2.944,2.9495,2.9583,2.9633,2.9663,2.9734,2.977,2.9807,2.9873,2.9899,2.9958,3.0021,3.0083,3.0121,3.0182,3.0247,3.0268,3.0271,3.0271,3.027,3.0274,3.0313,3.0316,3.0287,3.0287,3.0287,0,0,2.9432,2.9496,2.9526,2.9624,2.9676,2.9731,2.9755,2.9813,2.9855,2.9908,2.9977,3.0023,3.0098,3.0166,3.0198,3.0204,3.0287,3.0272,3.0271,3.0276,3.0315,3.0318,3.032,3.0288,3.0288,3.0287,0,0,2.9446,2.9499,2.9548,2.96,2.9678,2.9725,2.9737,2.9823,2.9856,2.9927,2.9968,3.0019,3.0123,3.0175,3.0215,3.0251,3.0279,3.0269,3.0266,3.0303,3.0305,3.0308,3.0322,3.0326,3.0273,3.0273,3.0273,0,2.9426,2.9512,2.9569,2.9625,2.9668,2.9718,2.9769,2.9816,2.991,2.9938,2.9943,3.0075,3.0129,3.021,3.0219,3.025,3.0266,3.0259,3.03,3.0303,3.0307,3.032,3.0325,3.0271,3.0271,3.0271,3.0272,0,2.9484,2.9543,2.9573,2.9663,2.9709,2.9761,2.9828,2.9867,2.9901,2.9948,3.002,3.0087,3.0163,3.0185,3.0217,3.0271,3.0272,3.0288,3.0295,3.0307,3.0321,3.0326,3.0269,3.0269,3.027,3.027,0,0,2.9468,2.959,2.96,2.9642,2.9733,2.978,2.9835,2.991,2.9943,3.0006,3.0055,3.0143,3.0158,3.0203,3.0243,3.0275,3.0301,3.0287,3.029,3.0288,3.0366,3.0354,3.0359,3.032,3.0321,3.0322,3.036,0,2.9495,2.9596,2.965,2.9729,2.9785,2.9835,2.9884,2.9945,2.9991,3.0045,3.0096,3.0157,3.0172,3.0201,3.0235,3.029,3.0317,3.0288,3.0367,3.0369,3.0347,3.0366,3.0354,3.0386,3.0366,3.0366,3.0367,0,2.9539,2.9603,2.9687,2.9773,2.9798,2.9841,2.9915,2.9966,3.0037,3.0068,3.0119,3.0158,3.022,3.0222,3.0309,3.0288,3.0323,3.0355,3.0358,3.0368,3.0369,3.0377,3.0397,3.0402,3.0376,3.0376,3.0375,0,2.952,2.9626,2.9691,2.9725,2.9827,2.9856,2.9899,2.997,3.0012,3.0076,3.0104,3.0175,3.0214,3.0268,3.0325,3.0322,3.0406,3.0413,3.0435,3.0433,3.045,3.0448,3.0477,3.0472,3.0472,3.0472,3.0472,0,2.9544,2.9594,2.9684,2.9724,2.9782,2.9844,2.99,2.9947,3.001,3.0061,3.0108,3.0154,3.0227,3.0283,3.0328,3.0394,3.0411,3.0438,3.045,3.0434,3.0431,3.0459,3.0458,3.0473,3.0473,3.0473,3.0473,0,2.9532,2.9594,2.9668,2.9759,2.9782,2.9821,2.9899,2.994,2.9989,3.0052,3.0071,3.0147,3.0216,3.0279,3.0369,3.04,3.0466,3.0481,3.0442,3.0449,3.0467,3.0464,3.0514,3.0524,3.0512,3.0512,3.0512,0,2.9544,2.9584,2.9679,2.9716,2.9759,2.9818,2.9862,2.9925,2.9968,3.0053,3.0084,3.0156,3.0217,3.0324,3.0388,3.0458,3.0475,3.0488,3.0486,3.0469,3.0476,3.0473,3.0478,3.0487,3.0487,3.0486,3.0486,0,2.9558,2.9588,2.9648,2.972,2.977,2.983,2.9891,2.9919,2.9994,3.004,3.0111,3.0158,3.0251,3.0323,3.04,3.0446,3.0479,3.0486,3.0495,3.048,3.0456,3.047,3.0441,3.0485,3.0485,3.0485,3.0485,3.0485,2.956,2.9598,2.9671,2.9737,2.979,2.9846,2.989,2.9944,3.0004,3.0085,3.0119,3.0191,3.0263,3.037,3.0416,3.0474,3.0481,3.0493,3.0496,3.0498,3.0496,3.0447,3.0488,3.0488,3.0488,3.0488,3.0488,0,2.9577,2.9627,2.9687,2.9772,2.9824,2.9851,2.992,2.9962,3.0025,3.0089,3.0148,3.023,3.03,3.037,3.0444,3.0476,3.0494,3.0494,3.0492,3.0502,3.0485,3.0471,3.0479,3.0479,3.0479,3.0479,3.0479,3.0479,2.9593,2.9659,2.9697,2.9791,2.9841,2.9911,2.9949,3.0001,3.0053,3.0142,3.02,3.0246,3.0313,3.0392,3.0457,3.0476,3.0502,3.0498,3.0521,3.0503,3.0503,3.0504,3.049,3.0502,3.0502,3.0533,3.0534,3.0534]},{"header":{"parameterUnit":"m.s-1","parameterCategory":1,"la1":30.2991,"la2":30.254,"lo1":-89.0895,"lo2":-89.0444,"dy":0.0017,"dx":0.0017,"nx":28,"ny":28,"refTime":"2023-07-21T21:00:00:Z","depth":0,"parameterNumber":3,"parameterNumberName":"V-component_of_WINDS"},"data":[0,0,0,0,0,0,0,0,0,0,0,0,0,0,0,0,0,0,0,0,0,0,0,0,0,0,0,0,0,0,0,0,0,0,0,0,0,0,0,0,0,0,0,0,0,0,0,0,0,0,0,0,0,0,0,0,0,0,-0.8426,-0.8426,0,-0.8427,-0.8427,-0.8427,-0.8418,-0.8418,-0.8418,-0.8417,-0.8418,-0.8419,-0.8419,0,0,0,0,0,0,0,0,0,0,0,0,0,-0.8416,-0.8417,-0.8426,-0.8426,-0.8426,-0.8427,-0.8427,-0.8427,-0.8418,-0.8418,-0.8418,-0.8417,-0.8418,-0.8419,-0.8419,0,0,0,0,0,0,0,0,0,0,0,0,0,-0.8419,-0.8417,-0.8426,-0.8421,-0.8421,-0.8427,-0.8427,-0.8427,-0.8418,-0.8418,-0.8418,-0.8417,-0.8418,-0.8419,-0.8419,-0.8429,0,0,-0.842,-0.842,0,0,0,0,0,0,0,0,-0.8419,-0.842,-0.8422,-0.8422,-0.8421,-0.8422,-0.8424,-0.8428,-0.8418,-0.8419,-0.8417,-0.8417,-0.842,-0.842,-0.8421,-0.8429,-0.8429,-0.842,-0.8421,-0.8421,-0.8421,0,0,0,0,0,0,0,-0.8419,-0.842,-0.8426,-0.8422,-0.8422,-0.842,-0.842,-0.8425,-0.8422,-0.8419,-0.8419,-0.8419,-0.842,-0.8421,-0.8421,-0.8429,-0.842,-0.8421,-0.8421,-0.8421,-0.8447,-0.8447,0,0,0,0,0,0,-0.8419,-0.8419,-0.8426,-0.8426,-0.8419,-0.842,-0.842,-0.8422,-0.8422,-0.8421,-0.8419,-0.8419,-0.842,-0.8421,-0.8421,-0.8434,-0.8421,-0.8421,-0.8421,-0.8447,-0.8447,-0.8448,0,0,0,0,0,0,-0.8419,-0.842,-0.8426,-0.8423,-0.8423,-0.8421,-0.8423,-0.8422,-0.8424,-0.8422,-0.8421,-0.8421,-0.842,-0.8421,-0.8428,-0.8433,-0.8421,-0.8422,-0.8446,-0.8447,-0.8447,-0.8458,0,0,0,0,0,0,-0.8419,-0.842,-0.8423,-0.8423,-0.8424,-0.8432,-0.8423,-0.8423,-0.8424,-0.8423,-0.8423,-0.8423,-0.842,-0.8427,-0.8428,-0.8434,-0.8422,-0.8445,-0.8446,-0.8447,-0.8457,-0.8459,-0.8461,0,0,0,0,0,-0.8419,-0.8426,-0.8423,-0.8424,-0.8428,-0.8432,-0.8433,-0.843,-0.8425,-0.8429,-0.8428,-0.8423,-0.8433,-0.8428,-0.8429,-0.8435,-0.8445,-0.8446,-0.8447,-0.8456,-0.8459,-0.8461,0,0,0,0,0,0,-0.8426,-0.8426,-0.8423,-0.843,-0.8432,-0.8431,-0.8435,-0.8432,-0.8434,-0.8433,-0.8429,-0.8429,-0.8437,-0.8437,-0.8431,-0.8445,-0.8438,-0.8439,-0.8445,-0.8447,-0.8449,-0.8448,-0.8422,0,0,0,0,0,-0.8429,-0.8433,-0.8432,-0.8439,-0.844,-0.8437,-0.8439,-0.8437,-0.8438,-0.8438,-0.8438,-0.8439,-0.8443,-0.8445,-0.8448,-0.8458,-0.8458,-0.8462,-0.8464,-0.8466,-0.8466,-0.8473,-0.8475,-0.8451,-0.8451,-0.8451,0,0,-0.8434,-0.8434,-0.8437,-0.844,-0.8441,-0.8445,-0.8438,-0.8442,-0.8446,-0.8439,-0.8445,-0.8446,-0.8447,-0.8455,-0.8459,-0.8455,-0.8474,-0.8467,-0.8468,-0.8468,-0.8474,-0.8476,-0.8478,-0.8452,-0.8451,-0.8451,0,0,-0.8446,-0.8446,-0.8452,-0.8454,-0.8455,-0.8454,-0.8456,-0.8456,-0.8456,-0.8463,-0.8458,-0.8462,-0.8468,-0.847,-0.8471,-0.8487,-0.8482,-0.8488,-0.8496,-0.8502,-0.8504,-0.8506,-0.8512,-0.8514,-0.8489,-0.8489,-0.8489,0,-0.8452,-0.8458,-0.8456,-0.8461,-0.8463,-0.8458,-0.8465,-0.8466,-0.8469,-0.847,-0.8467,-0.8475,-0.8476,-0.8485,-0.8489,-0.849,-0.8492,-0.8487,-0.8504,-0.8506,-0.8507,-0.8513,-0.8515,-0.8489,-0.8489,-0.8489,-0.8489,0,-0.8466,-0.8471,-0.8476,-0.8479,-0.8482,-0.8487,-0.8486,-0.849,-0.8488,-0.8487,-0.8495,-0.8496,-0.85,-0.8502,-0.85,-0.8511,-0.8509,-0.8505,-0.8497,-0.851,-0.8515,-0.8517,-0.849,-0.849,-0.849,-0.849,0,0,-0.8481,-0.8484,-0.8486,-0.8488,-0.849,-0.8494,-0.8501,-0.8505,-0.8508,-0.8511,-0.8516,-0.8522,-0.8519,-0.8521,-0.8519,-0.8524,-0.8537,-0.852,-0.852,-0.8523,-0.8551,-0.8554,-0.8556,-0.8535,-0.8535,-0.8536,-0.8551,0,-0.8493,-0.8503,-0.8502,-0.8513,-0.8517,-0.8514,-0.852,-0.8522,-0.8523,-0.8527,-0.8528,-0.8533,-0.8527,-0.8529,-0.8534,-0.8534,-0.8543,-0.8533,-0.854,-0.854,-0.8539,-0.8559,-0.8561,-0.8576,-0.8553,-0.8553,-0.8553,0,-0.8507,-0.8511,-0.8522,-0.8525,-0.8527,-0.8532,-0.8537,-0.8541,-0.8545,-0.8545,-0.8548,-0.8546,-0.8553,-0.8546,-0.8557,-0.855,-0.8554,-0.8555,-0.8555,-0.8555,-0.8547,-0.8559,-0.858,-0.8582,-0.8557,-0.8556,-0.8556,0,-0.8517,-0.8525,-0.8533,-0.8535,-0.8539,-0.8543,-0.8544,-0.8547,-0.8551,-0.8555,-0.8557,-0.8562,-0.8565,-0.8569,-0.8569,-0.8564,-0.858,-0.8573,-0.858,-0.858,-0.8583,-0.8582,-0.8604,-0.8585,-0.8585,-0.8585,-0.8585,0,-0.853,-0.8537,-0.8538,-0.8543,-0.8551,-0.855,-0.8558,-0.856,-0.8563,-0.8568,-0.8566,-0.8571,-0.8571,-0.8576,-0.8576,-0.8585,-0.8587,-0.8587,-0.8587,-0.8587,-0.8587,-0.8588,-0.8587,-0.8586,-0.8586,-0.8586,-0.8586,0,-0.8542,-0.8543,-0.8551,-0.8555,-0.8556,-0.8562,-0.8565,-0.857,-0.8571,-0.8578,-0.858,-0.8582,-0.8588,-0.8589,-0.8596,-0.8596,-0.8607,-0.8606,-0.8606,-0.8606,-0.8613,-0.8612,-0.8636,-0.8639,-0.8619,-0.8619,-0.8619,0,-0.8549,-0.8555,-0.856,-0.8563,-0.8566,-0.8571,-0.8575,-0.8575,-0.8579,-0.8585,-0.8589,-0.8596,-0.8601,-0.8612,-0.8614,-0.862,-0.8619,-0.8627,-0.862,-0.862,-0.8619,-0.8619,-0.862,-0.8628,-0.8628,-0.8629,-0.8629,0,-0.8563,-0.8564,-0.8569,-0.8575,-0.858,-0.8585,-0.8589,-0.8592,-0.8593,-0.8598,-0.8605,-0.8609,-0.8618,-0.8625,-0.8631,-0.8634,-0.8632,-0.8631,-0.8633,-0.8633,-0.8633,-0.8633,-0.861,-0.863,-0.863,-0.863,-0.863,-0.863,-0.8573,-0.8578,-0.8583,-0.8589,-0.8593,-0.8598,-0.8603,-0.8605,-0.8611,-0.8618,-0.8619,-0.8627,-0.8631,-0.864,-0.8643,-0.865,-0.8647,-0.865,-0.865,-0.8651,-0.8652,-0.8633,-0.8651,-0.8651,-0.8651,-0.8651,-0.8651,0,-0.8587,-0.859,-0.8596,-0.8603,-0.8609,-0.8607,-0.8613,-0.8617,-0.8624,-0.8629,-0.8635,-0.8644,-0.8651,-0.8654,-0.8662,-0.8666,-0.8666,-0.8668,-0.8668,-0.8668,-0.8654,-0.8651,-0.8669,-0.8669,-0.8669,-0.8669,-0.8669,-0.8669,-0.8595,-0.8604,-0.8605,-0.8617,-0.862,-0.8628,-0.8631,-0.8636,-0.864,-0.865,-0.8656,-0.8659,-0.8663,-0.8671,-0.8678,-0.8679,-0.8682,-0.8685,-0.8685,-0.8671,-0.8669,-0.8667,-0.8665,-0.8685,-0.8685,-0.8699,-0.8699,-0.8699]}]]